Simultaneous Nadir Overpasses (SNOs) Predictions

Prediction of SNOs between NOAA-19 and NPP Satellite Orbit:

Table of predicted SNOs for the next 14.0 days since TLE Epoch: 1/2/2015
Index Date (NOAA-19) Time (NOAA-19) Lat,Lon (NOAA-19) SZA (NOAA-19 ) Date (NPP) Time (NPP) Lat,Lon (NPP) SZA (NPP ) Distance(km) Time Diff (sec)
1 01/08/2015 09:08:56 80.93, -6.54 106.35 01/08/2015 09:10:00 80.94, -6.70 106.34 2.78 64
2 01/08/2015 09:59:57 -80.94, 160.62 73.64 01/08/2015 10:00:44 -80.93, 160.81 73.69 3.29 47
3 01/08/2015 10:50:58 80.92, -31.66 106.29 01/08/2015 10:51:29 80.92, -31.79 106.29 2.43 31
4 01/08/2015 11:41:59 -80.92, 135.50 73.71 01/08/2015 11:42:14 -80.93, 135.35 73.69 2.82 15
5 01/08/2015 12:33:01 80.92, -57.14 106.28 01/08/2015 12:32:59 80.93, -57.25 106.30 2.08 2
6 01/08/2015
